Location: Passau
(48.5830°N, 13.4830°E)
Time: 19:40:36
(UTC+02:00)

Vanguard 3 - Pass Details

Date: 20 May 2024
Orbit: 509 x 3231 km, 33.3° (Epoch: 15 June)

Event Time Altitude Azimuth Distance (km) Brightness Sun altitude
Rises 03:23:19 0° 273° (W) 6,690 11.5 -14.5°
Reaches altitude 10° 03:29:45 10° 258° (WSW) 5,968 11.1 -13.9°
Maximum altitude 03:40:33 18° 223° (SW) 5,450 10.7 -12.9°
Drops below altitude 10° 03:51:26 10° 188° (S) 5,953 11.0 -11.7°
Sets 03:57:59 0° 172° (S) 6,659 11.4 -11.0°
